Regional Weather Roundup
Issued by NWS

Home | Current Version | Previous Version | Graphics & Text | Print | Product List | Glossary On
Versions: 1 2 3 4 5 6 7 8 9 10 11 12 13 14 15 16 17 18 19 20 21 22 23 24 25 26 27 28 29 30 31 32 33 34 35 36 37 38 39 40 41 42 43 44 45 46 47 48 49 50
000
ASUS44 KMEG 280110
RWRTN
TENNESSEE HOURLY STATE WEATHER ROUNDUP
NATIONAL WEATHER SERVICE MEMPHIS TN
800 PM CDT SAT AUG 27 2016

TNZ002-004-019-021-049-052-054-088>092-280200-
WEST TENNESSEE

CITY           SKY/WX    TMP DP  RH WIND       PRES   REMARKS
MEMPHIS INTL   PTCLDY    88  70  55 E5        30.02R HX  93
NWS MEMPHIS      N/A     83 N/A N/A MISG        N/A
JACKSON        PTCLDY    79  76  90 CALM      30.03S
DYERSBURG      CLEAR     81  73  78 CALM      30.03
UNION CITY     CLEAR     81  75  83 CALM      30.02S
PARIS          CLEAR     77  75  94 CALM      30.05F
$$

TNZ008-025-027-028-033-062-065-066-280200-
NORTH MIDDLE TENNESSEE

CITY           SKY/WX    TMP DP  RH WIND       PRES   REMARKS
NASHVILLE      CLOUDY    75  71  87 NE3       30.10R
CLARKSVILLE    CLOUDY    75  71  87 E3        30.08R
COOKEVILLE     CLEAR     75  72  88 CALM      30.12S
CROSSVILLE     PTCLDY    76  69  79 W7        30.18R
$$

TNZ061-075-076-078-094-096-097-280200-
SOUTH MIDDLE TENNESSEE

CITY           SKY/WX    TMP DP  RH WIND       PRES   REMARKS
FAYETTEVILLE   MOCLDY    81  75  83 S6        30.08S
TULLAHOMA      CLEAR     79  72  78 E7        30.11R
WINCHESTER     PTCLDY    77  73  88 CALM      30.10R
MCMINNVILLE    CLEAR     79  77  94 E3        30.12R
COLUMBIA       CLEAR     77  77 100 NE3       30.07R
SHELBYVILLE    CLEAR     79  73  83 CALM      30.10R
$$

TNZ017-018-042-046-047-280200-
NORTHEAST TENNESSEE

CITY           SKY/WX    TMP DP  RH WIND       PRES   REMARKS
TRI CITIES     CLOUDY    80  69  69 SW3       30.17R THUNDER
ELIZABETHTON   CLOUDY    77  72  83 CALM      30.17R
$$

TNZ012-013-036-069-073-074-280200-
CENTRAL EAST TENNESSEE

CITY           SKY/WX    TMP DP  RH WIND       PRES   REMARKS
KNOXVILLE      PTCLDY    75  69  81 SW8       30.12R
OAK RIDGE      PTCLDY    80  69  69 E6        30.15R
GATLINBURG     CLEAR     73  70  88 CALM      30.14S
MORRISTOWN     CLEAR     79  66  65 CALM      30.15R
$$

TNZ083-085-099-280200-
SOUTHEAST TENNESSEE

CITY           SKY/WX    TMP DP  RH WIND       PRES   REMARKS
CHATTANOOGA    PTCLDY    83  71  67 N9        30.09R
$$

SKY/WX REPORTED AS FAIR MEANS FEW OR NO CLOUDS BELOW
12 THOUSAND FEET.





USA.gov is the U.S. government's official web portal to all federal, state and local government web resources and services.